This is the latest recevied weather packets stored in our database for station/object OK1ZDJ-13. If no packets are shown the sender has not sent any weather packets the latest 10 day(s).
| Time | Temp. | Humidity | Pressure | Rain* | Wind** | Luminosity | Snow |
|---|---|---|---|---|---|---|---|
| 1777846678 | 14.44° C | 49% | 1014.9 hPa | - | - | - | - |
| 1777846078 | 14.44° C | 48% | 1014.9 hPa | - | - | - | - |
| 1777845478 | 14.44° C | 48% | 1015 hPa | - | - | - | - |
| 1777844878 | 14.44° C | 48% | 1015 hPa | - | - | - | - |
| 1777844282 | 14.44° C | 48% | 1015 hPa | - | - | - | - |
| 1777843676 | 14.44° C | 48% | 1015 hPa | - | - | - | - |
| 1777843077 | 14.44° C | 48% | 1015 hPa | - | - | - | - |
| 1777842476 | 15° C | 48% | 1015.1 hPa | - | - | - | - |
| 1777841876 | 15° C | 46% | 1015 hPa | - | - | - | - |
| 1777841277 | 15.56° C | 46% | 1015.1 hPa | - | - | - | - |
| 1777840676 | 15.56° C | 45% | 1015 hPa | - | - | - | - |
| 1777839477 | 15.56° C | 45% | 1015 hPa | - | - | - | - |
| 1777838876 | 16.11° C | 45% | 1015.1 hPa | - | - | - | - |
| 1777838276 | 16.11° C | 45% | 1015.2 hPa | - | - | - | - |
| 1777837677 | 16.67° C | 45% | 1015.3 hPa | - | - | - | - |
| 1777837077 | 17.22° C | 43% | 1015.2 hPa | - | - | - | - |
| 1777836477 | 17.78° C | 40% | 1015.1 hPa | - | - | - | - |
| 1777835876 | 18.33° C | 37% | 1015 hPa | - | - | - | - |
| 1777835276 | 18.89° C | 36% | 1015 hPa | - | - | - | - |
| 1777834682 | 19.44° C | 35% | 1014.9 hPa | - | - | - | - |
| 1777834077 | 19.44° C | 34% | 1014.8 hPa | - | - | - | - |
| 1777833477 | 20° C | 33% | 1014.7 hPa | - | - | - | - |
| 1777832876 | 20.56° C | 32% | 1014.7 hPa | - | - | - | - |
| 1777832276 | 21.11° C | 31% | 1014.6 hPa | - | - | - | - |
| 1777831677 | 21.11° C | 30% | 1014.4 hPa | - | - | - | - |
* Rain since midnight (hover to see other rain measurements)
** Current wind speed in m/s (hover to see current wind gust speed)